Home > Time Zones > World Clock > Weather > India > Ajmer > Past weeks

Flag for India Weather past 2 weeks in Ajmer, Rajasthan, India

Now
86 °F

Haze.


Feels Like: 91 °F
Forecast: 82 / 93 °F
Wind: 15 mph from West

Location: Jaipur / Sanganer

Current Time: Jul 5, 2015 at 6:07:51 AM

Latest Report: Jul 5, 2015 at 5:00 AM


Visibility: 2 mi

Pressure: 29.56 "Hg

Humidity: 59%

Dew point: 70 °F

Location of AjmerLocation

Historic Weather in Ajmer — Graph

°F

Ajmer temperature yesterday

Maximum temperature yesterday: 97 °F (at 3:30 PM)
Minimum temperature yesterday: 82 °F (at 5:00 AM)
Average temperature yesterday: 90 °F

Past Weeks' High & Low Weather Summary

 TemperatureHumidityPressure
High106 °F (Jun 20, 1:00 PM)100% (Jun 25, 3:00 AM)29.77 "Hg (Jun 25, 3:00 AM)
Low75 °F (Jun 29, 9:00 PM)25% (Jun 20, 6:00 PM)29.39 "Hg (Jun 22, 5:30 PM)
Average88 °F62%29.57 "Hg
* Reported Jun 20 3:30 AM — Jul 5 4:00 AM, Ajmer, Weather by CustomWeather, © 2015

Note: Actual official high and low records may vary slightly from our data, if they occured in-between our weather recording intervals... More about our weather records

Advertising

Ajmer weather history for previous 24 hours

 ConditionsComfort  
Time TempWeatherWind HumidityBarometerVisibility
4:00 AM
Sun, Jul 5
86 °FHaze.14 mph55%29.56 "Hg1 mi
3:00 AM88 °FHaze.14 mph52%29.56 "Hg1 mi
2:00 AM88 °FHaze.10 mph55%29.56 "Hg1 mi
1:00 AM90 °FHaze.9 mph52%29.59 "Hg1 mi
12:00 AM90 °FHaze.8 mph55%29.59 "Hg1 mi
11:00 PM
Sat, Jul 4
91 °FHaze.9 mph49%29.59 "Hg1 mi
10:00 PM91 °FHaze.7 mph52%29.59 "Hg1 mi
9:00 PM91 °FHaze.7 mph52%29.59 "Hg1 mi
8:00 PM93 °FHaze.9 mph47%29.59 "Hg1 mi
7:00 PM95 °FPassing clouds.8 mph44%29.56 "Hg1 mi
6:30 PM95 °FLow level haze.12 mph44%29.56 "Hg1 mi
6:00 PM97 °FLow level haze.13 mph42%29.56 "Hg1 mi
5:30 PM97 °FLow level haze.13 mph42%29.56 "Hg1 mi
5:00 PM97 °FLow level haze.12 mph42%29.56 "Hg1 mi
4:30 PM97 °FHaze.13 mph42%29.56 "Hg2 mi
4:00 PM97 °FHaze.13 mph42%29.59 "Hg2 mi
3:30 PM97 °FHaze.12 mph42%29.59 "Hg2 mi
3:00 PM95 °FHaze.14 mph44%29.59 "Hg2 mi
2:30 PM95 °FHaze.12 mph44%29.62 "Hg2 mi
2:00 PM93 °FHaze.10 mph47%29.62 "Hg2 mi
1:00 PM91 °FHaze.13 mph52%29.62 "Hg2 mi
12:00 PM90 °FHaze.12 mph55%29.65 "Hg2 mi
11:30 AM90 °FHaze.12 mph55%29.65 "Hg2 mi
11:00 AM88 °FHaze.15 mph59%29.65 "Hg2 mi
10:00 AM86 °FHaze.17 mph62%29.65 "Hg2 mi
9:00 AM86 °FHaze.16 mph62%29.65 "Hg1 mi
8:00 AM84 °FHaze.15 mph66%29.65 "Hg1 mi
7:30 AM84 °FHaze.14 mph62%29.65 "Hg1 mi
7:00 AM84 °FHaze.12 mph62%29.65 "Hg1 mi
6:00 AM84 °FHaze.15 mph66%29.62 "Hg1 mi
Weather by CustomWeather, © 2015

See weather overviewHow to use our weather pages